Time,TemperatureF,DewpointF,PressureIn,WindDirection,WindDirectionDegrees,WindSpeedMPH,WindSpeedGustMPH,Humidity,HourlyPrecipIn,Conditions,Clouds,dailyrainin,SoftwareType,DateUTC
2013-03-22 00:00:00,26.8,22.6,29.92,ENE,62,7.0,10.0,84,0.00,OVC,,0.00,WeatherDisplay:10.37,2013-03-22 05:00:00,
2013-03-22 00:05:00,26.7,22.8,29.92,ENE,65,7.0,10.0,85,0.00,OVC,,0.00,WeatherDisplay:10.37,2013-03-22 05:05:00,
2013-03-22 00:10:00,26.8,22.9,29.92,ENE,65,7.0,10.0,85,0.00,OVC,,0.00,WeatherDisplay:10.37,2013-03-22 05:10:00,
2013-03-22 00:15:00,26.8,22.9,29.92,ENE,64,8.0,12.0,85,0.00,OVC,,0.00,WeatherDisplay:10.37,2013-03-22 05:15:00,
2013-03-22 00:20:00,26.8,23.2,29.92,ENE,63,9.0,12.0,86,0.00,OVC,,0.00,WeatherDisplay:10.37,2013-03-22 05:20:00,
2013-03-22 00:30:00,26.8,23.2,29.92,ENE,63,8.0,10.0,86,0.00,OVC,,0.00,WeatherDisplay:10.37,2013-03-22 05:30:00,
2013-03-22 00:40:00,26.9,23.3,29.92,NE,54,6.0,10.0,86,0.00,OVC,,0.00,WeatherDisplay:10.37,2013-03-22 05:40:00,
2013-03-22 00:45:00,26.9,23.5,29.93,NE,54,5.0,9.0,87,0.00,OVC,,0.00,WeatherDisplay:10.37,2013-03-22 05:45:00,
2013-03-22 00:55:00,26.9,23.6,29.92,NE,45,7.0,12.0,87,0.00,OVC,,0.00,WeatherDisplay:10.37,2013-03-22 05:55:00,
2013-03-22 01:00:00,26.9,23.5,29.92,NE,46,7.0,8.0,87,0.00,OVC,,0.00,WeatherDisplay:10.37,2013-03-22 06:00:00,
2013-03-22 01:10:00,26.8,23.4,29.92,NE,53,7.0,12.0,87,0.00,OVC,,0.00,WeatherDisplay:10.37,2013-03-22 06:10:00,
2013-03-22 01:15:00,26.8,23.7,29.92,NE,54,7.0,12.0,88,0.00,OVC,,0.00,WeatherDisplay:10.37,2013-03-22 06:15:00,
2013-03-22 01:20:00,26.8,23.7,29.92,NE,52,6.0,12.0,88,0.00,OVC,,0.00,WeatherDisplay:10.37,2013-03-22 06:20:00,
2013-03-22 01:25:00,26.7,23.6,29.92,NE,54,7.0,10.0,88,0.00,OVC,,0.00,WeatherDisplay:10.37,2013-03-22 06:25:00,
2013-03-22 01:30:00,26.7,23.6,29.92,ENE,59,7.0,10.0,88,0.00,OVC,,0.00,WeatherDisplay:10.37,2013-03-22 06:30:00,
2013-03-22 01:40:00,26.7,23.7,29.92,ENE,61,8.0,12.0,88,0.00,OVC,,0.00,WeatherDisplay:10.37,2013-03-22 06:40:00,
2013-03-22 01:45:00,26.7,23.6,29.92,ENE,68,7.0,12.0,88,0.00,OVC,,0.00,WeatherDisplay:10.37,2013-03-22 06:45:00,
2013-03-22 01:50:00,26.7,23.6,29.92,ENE,69,10.0,12.0,88,0.00,OVC,,0.00,WeatherDisplay:10.37,2013-03-22 06:50:00,
2013-03-22 02:00:00,26.7,23.9,29.93,ENE,67,7.0,10.0,89,0.00,OVC,,0.00,WeatherDisplay:10.37,2013-03-22 07:00:00,
2013-03-22 02:10:00,26.8,23.7,29.93,ENE,63,10.0,15.0,88,0.00,OVC,,0.00,WeatherDisplay:10.37,2013-03-22 07:10:00,
2013-03-22 02:15:00,26.8,23.7,29.93,ENE,67,8.0,12.0,88,0.00,OVC,,0.00,WeatherDisplay:10.37,2013-03-22 07:15:00,
2013-03-22 02:20:00,26.9,24.1,29.93,ENE,71,8.0,12.0,89,0.00,OVC,,0.00,WeatherDisplay:10.37,2013-03-22 07:20:00,
2013-03-22 02:25:00,26.9,24.1,29.93,ENE,66,7.0,13.0,89,0.00,OVC,,0.00,WeatherDisplay:10.37,2013-03-22 07:25:00,
2013-03-22 02:30:00,27.0,24.2,29.93,ENE,63,8.0,13.0,89,0.00,OVC,,0.00,WeatherDisplay:10.37,2013-03-22 07:30:00,
2013-03-22 02:40:00,27.1,24.3,29.94,ENE,62,8.0,12.0,89,0.00,OVC,,0.00,WeatherDisplay:10.37,2013-03-22 07:40:00,
2013-03-22 02:45:00,27.2,24.4,29.94,ENE,60,6.0,10.0,89,0.00,OVC,,0.00,WeatherDisplay:10.37,2013-03-22 07:45:00,
2013-03-22 02:50:00,27.3,24.5,29.94,NE,55,7.0,10.0,89,0.00,OVC,,0.00,WeatherDisplay:10.37,2013-03-22 07:50:00,
2013-03-22 02:55:00,27.3,24.5,29.94,NE,55,9.0,14.0,89,0.00,OVC,,0.00,WeatherDisplay:10.37,2013-03-22 07:55:00,
2013-03-22 03:00:00,27.3,24.5,29.94,ENE,59,7.0,12.0,89,0.00,OVC,,0.00,WeatherDisplay:10.37,2013-03-22 08:00:00,
2013-03-22 03:10:00,27.4,24.6,29.94,ENE,60,8.0,10.0,89,0.00,OVC,,0.00,WeatherDisplay:10.37,2013-03-22 08:10:00,
2013-03-22 03:15:00,27.5,24.7,29.94,NE,56,7.0,10.0,89,0.00,OVC,,0.00,WeatherDisplay:10.37,2013-03-22 08:15:00,
2013-03-22 03:20:00,27.5,24.7,29.94,NE,53,5.0,12.0,89,0.00,OVC,,0.00,WeatherDisplay:10.37,2013-03-22 08:20:00,
2013-03-22 03:25:00,27.6,24.8,29.94,NE,51,6.0,10.0,89,0.00,OVC,,0.00,WeatherDisplay:10.37,2013-03-22 08:25:00,
2013-03-22 03:30:00,27.6,24.8,29.94,NE,51,6.0,12.0,89,0.00,OVC,,0.00,WeatherDisplay:10.37,2013-03-22 08:30:00,
2013-03-22 03:40:00,27.7,24.9,29.94,NE,48,6.0,8.0,89,0.00,OVC,,0.00,WeatherDisplay:10.37,2013-03-22 08:40:00,
2013-03-22 03:45:00,27.7,24.9,29.94,NE,49,6.0,9.0,89,0.00,OVC,,0.00,WeatherDisplay:10.37,2013-03-22 08:45:00,
2013-03-22 03:50:00,27.8,25.0,29.95,NE,50,6.0,9.0,89,0.00,OVC,,0.00,WeatherDisplay:10.37,2013-03-22 08:50:00,
2013-03-22 03:55:00,27.7,24.9,29.94,NE,53,5.0,8.0,89,0.00,OVC,,0.00,WeatherDisplay:10.37,2013-03-22 08:55:00,
2013-03-22 04:00:00,27.7,24.9,29.94,NE,55,5.0,8.0,89,0.00,OVC,,0.00,WeatherDisplay:10.37,2013-03-22 09:00:00,
2013-03-22 04:10:00,27.8,25.0,29.93,ENE,60,5.0,8.0,89,0.00,OVC,,0.00,WeatherDisplay:10.37,2013-03-22 09:10:00,
2013-03-22 04:20:00,27.8,25.0,29.93,ENE,60,6.0,9.0,89,0.00,OVC,,0.00,WeatherDisplay:10.37,2013-03-22 09:20:00,
2013-03-22 04:30:00,27.7,24.9,29.93,ENE,63,6.0,9.0,89,0.00,OVC,,0.00,WeatherDisplay:10.37,2013-03-22 09:30:00,
2013-03-22 04:40:00,27.7,24.9,29.93,ENE,67,6.0,8.0,89,0.00,OVC,,0.00,WeatherDisplay:10.37,2013-03-22 09:40:00,
2013-03-22 04:45:00,27.8,25.0,29.93,ENE,69,5.0,8.0,89,0.00,OVC,,0.00,WeatherDisplay:10.37,2013-03-22 09:45:00,
2013-03-22 04:50:00,27.8,25.0,29.93,ENE,67,7.0,9.0,89,0.00,OVC,,0.00,WeatherDisplay:10.37,2013-03-22 09:50:00,
2013-03-22 05:00:00,27.9,24.8,29.93,ENE,64,7.0,10.0,88,0.00,OVC,,0.00,WeatherDisplay:10.37,2013-03-22 10:00:00,
2013-03-22 05:10:00,27.9,24.8,29.93,ENE,62,5.0,10.0,88,0.00,OVC,,0.00,WeatherDisplay:10.37,2013-03-22 10:10:00,
2013-03-22 05:15:00,27.9,24.8,29.93,ENE,57,6.0,10.0,88,0.00,OVC,,0.00,WeatherDisplay:10.37,2013-03-22 10:15:00,
2013-03-22 05:20:00,27.8,24.5,29.93,ENE,57,7.0,9.0,87,0.00,OVC,,0.00,WeatherDisplay:10.37,2013-03-22 10:20:00,
2013-03-22 05:25:00,27.8,24.4,29.93,ENE,58,5.0,12.0,87,0.00,OVC,,0.00,WeatherDisplay:10.37,2013-03-22 10:25:00,
2013-03-22 05:30:00,27.8,24.4,29.93,ENE,60,8.0,10.0,87,0.00,OVC,,0.00,WeatherDisplay:10.37,2013-03-22 10:30:00,
2013-03-22 05:40:00,27.7,24.4,29.93,ENE,66,7.0,9.0,87,0.00,OVC,,0.00,WeatherDisplay:10.37,2013-03-22 10:40:00,
2013-03-22 05:45:00,27.7,24.3,29.93,ENE,64,12.0,13.0,87,0.00,OVC,,0.00,WeatherDisplay:10.37,2013-03-22 10:45:00,
2013-03-22 05:50:00,27.7,24.1,29.93,ENE,64,7.0,12.0,86,0.00,OVC,,0.00,WeatherDisplay:10.37,2013-03-22 10:50:00,
2013-03-22 05:55:00,27.7,24.1,29.93,ENE,59,8.0,12.0,86,0.00,OVC,,0.00,WeatherDisplay:10.37,2013-03-22 10:55:00,
2013-03-22 06:00:00,27.6,24.0,29.93,ENE,61,7.0,10.0,86,0.00,OVC,,0.00,WeatherDisplay:10.37,2013-03-22 11:00:00,
2013-03-22 06:10:00,27.5,23.9,29.93,ENE,62,7.0,10.0,86,0.00,OVC,,0.00,WeatherDisplay:10.37,2013-03-22 11:10:00,
2013-03-22 06:15:00,27.5,23.9,29.93,ENE,58,7.0,10.0,86,0.00,OVC,,0.00,WeatherDisplay:10.37,2013-03-22 11:15:00,
2013-03-22 06:20:00,27.4,24.1,29.93,NE,56,8.0,10.0,87,0.00,OVC,,0.00,WeatherDisplay:10.37,2013-03-22 11:20:00,
2013-03-22 06:25:00,27.4,24.0,29.94,NE,56,7.0,10.0,87,0.00,OVC,,0.00,WeatherDisplay:10.37,2013-03-22 11:25:00,
2013-03-22 06:30:00,27.3,23.9,29.94,ENE,57,8.0,12.0,87,0.00,OVC,,0.00,WeatherDisplay:10.37,2013-03-22 11:30:00,
2013-03-22 06:40:00,27.3,23.9,29.94,ENE,67,6.0,12.0,87,0.00,OVC,,0.00,WeatherDisplay:10.37,2013-03-22 11:40:00,
2013-03-22 06:45:00,27.2,23.9,29.94,ENE,64,9.0,12.0,87,0.00,OVC,,0.00,WeatherDisplay:10.37,2013-03-22 11:45:00,
2013-03-22 06:50:00,27.2,23.8,29.93,ENE,67,8.0,13.0,87,0.00,OVC,,0.00,WeatherDisplay:10.37,2013-03-22 11:50:00,
2013-03-22 06:55:00,27.2,23.8,29.93,ENE,69,7.0,12.0,87,0.00,OVC,,0.00,WeatherDisplay:10.37,2013-03-22 11:55:00,
2013-03-22 07:00:00,27.2,23.8,29.93,ENE,64,8.0,12.0,87,0.00,OVC,,0.00,WeatherDisplay:10.37,2013-03-22 12:00:00,
2013-03-22 07:05:00,27.2,23.8,29.94,ENE,62,7.0,12.0,87,0.00,OVC,,0.00,WeatherDisplay:10.37,2013-03-22 12:05:00,
2013-03-22 07:10:00,27.1,23.8,29.94,ENE,62,7.0,10.0,87,0.00,OVC,,0.00,WeatherDisplay:10.37,2013-03-22 12:10:00,
2013-03-22 07:15:00,27.1,24.1,29.94,ENE,66,8.0,12.0,88,0.00,OVC,,0.00,WeatherDisplay:10.37,2013-03-22 12:15:00,
2013-03-22 07:20:00,27.1,24.1,29.95,ENE,67,5.0,9.0,88,0.00,OVC,,0.00,WeatherDisplay:10.37,2013-03-22 12:20:00,
2013-03-22 07:30:00,27.1,24.0,29.95,ENE,69,8.0,12.0,88,0.00,OVC,,0.00,WeatherDisplay:10.37,2013-03-22 12:30:00,
2013-03-22 07:40:00,27.1,24.0,29.95,ENE,69,8.0,12.0,88,0.00,OVC,,0.00,WeatherDisplay:10.37,2013-03-22 12:40:00,
2013-03-22 07:45:00,27.1,24.0,29.95,ENE,67,7.0,9.0,88,0.00,OVC,,0.00,WeatherDisplay:10.37,2013-03-22 12:45:00,
2013-03-22 07:50:00,27.1,24.0,29.95,ENE,66,8.0,10.0,88,0.00,OVC,,0.00,WeatherDisplay:10.37,2013-03-22 12:50:00,
2013-03-22 07:55:00,27.1,24.0,29.95,ENE,65,8.0,10.0,88,0.00,OVC,,0.00,WeatherDisplay:10.37,2013-03-22 12:55:00,
2013-03-22 08:00:00,27.1,24.0,29.95,ENE,67,7.0,10.0,88,0.00,OVC,,0.00,WeatherDisplay:10.37,2013-03-22 13:00:00,
2013-03-22 08:05:00,27.1,24.0,29.95,ENE,74,6.0,10.0,88,0.00,OVC,,0.00,WeatherDisplay:10.37,2013-03-22 13:05:00,
2013-03-22 08:10:00,27.1,24.0,29.95,ENE,75,7.0,10.0,88,0.00,OVC,,0.00,WeatherDisplay:10.37,2013-03-22 13:10:00,
2013-03-22 08:15:00,27.2,24.1,29.95,ENE,78,6.0,10.0,88,0.00,OVC,,0.00,WeatherDisplay:10.37,2013-03-22 13:15:00,
2013-03-22 08:20:00,27.3,24.2,29.95,East,80,8.0,10.0,88,0.00,OVC,,0.00,WeatherDisplay:10.37,2013-03-22 13:20:00,
2013-03-22 08:30:00,27.3,24.2,29.94,ENE,71,5.0,7.0,88,0.00,OVC,,0.00,WeatherDisplay:10.37,2013-03-22 13:30:00,
2013-03-22 08:40:00,27.4,24.3,29.94,East,88,9.0,12.0,88,0.00,OVC,,0.00,WeatherDisplay:10.37,2013-03-22 13:40:00,
2013-03-22 08:45:00,27.4,24.3,29.94,East,89,7.0,14.0,88,0.00,OVC,,0.00,WeatherDisplay:10.37,2013-03-22 13:45:00,
2013-03-22 08:50:00,27.6,24.5,29.94,East,87,7.0,10.0,88,0.00,OVC,,0.00,WeatherDisplay:10.37,2013-03-22 13:50:00,
2013-03-22 08:55:00,27.5,24.4,29.94,East,84,13.0,15.0,88,0.00,OVC,,0.00,WeatherDisplay:10.37,2013-03-22 13:55:00,
2013-03-22 09:00:00,27.5,24.4,29.93,ENE,73,9.0,16.0,88,0.00,OVC,,0.00,WeatherDisplay:10.37,2013-03-22 14:00:00,
2013-03-22 09:05:00,27.6,24.5,29.93,ENE,72,9.0,14.0,88,0.00,OVC,,0.00,WeatherDisplay:10.37,2013-03-22 14:05:00,
2013-03-22 09:10:00,27.7,24.6,29.93,East,79,8.0,13.0,88,0.00,OVC,,0.00,WeatherDisplay:10.37,2013-03-22 14:10:00,
2013-03-22 09:15:00,27.7,24.6,29.94,East,84,8.0,14.0,88,0.00,OVC,,0.00,WeatherDisplay:10.37,2013-03-22 14:15:00,
2013-03-22 09:25:00,27.9,24.8,29.93,East,81,9.0,13.0,88,0.00,OVC,,0.00,WeatherDisplay:10.37,2013-03-22 14:25:00,
2013-03-22 09:30:00,27.9,24.8,29.93,ENE,77,8.0,12.0,88,0.00,OVC,,0.00,WeatherDisplay:10.37,2013-03-22 14:30:00,
2013-03-22 09:35:00,28.0,24.9,29.93,East,81,8.0,12.0,88,0.00,OVC,,0.00,WeatherDisplay:10.37,2013-03-22 14:35:00,
2013-03-22 09:40:00,27.9,24.8,29.93,ENE,77,8.0,14.0,88,0.00,OVC,,0.00,WeatherDisplay:10.37,2013-03-22 14:40:00,
2013-03-22 09:45:00,28.0,24.9,29.93,ENE,77,7.0,12.0,88,0.00,OVC,,0.00,WeatherDisplay:10.37,2013-03-22 14:45:00,
2013-03-22 09:50:00,28.2,25.1,29.93,East,80,6.0,12.0,88,0.00,OVC,,0.00,WeatherDisplay:10.37,2013-03-22 14:50:00,
2013-03-22 10:00:00,28.2,25.1,29.94,East,84,7.0,10.0,88,0.00,OVC,,0.00,WeatherDisplay:10.37,2013-03-22 15:00:00,
2013-03-22 10:10:00,28.2,25.1,29.95,ENE,73,5.0,6.0,88,0.00,OVC,,0.00,WeatherDisplay:10.37,2013-03-22 15:10:00,
2013-03-22 10:15:00,28.3,25.2,29.95,ENE,72,3.0,8.0,88,0.00,OVC,,0.00,WeatherDisplay:10.37,2013-03-22 15:15:00,
2013-03-22 10:20:00,28.4,25.3,29.95,ENE,72,5.0,9.0,88,0.00,OVC,,0.00,WeatherDisplay:10.37,2013-03-22 15:20:00,
2013-03-22 10:25:00,28.5,25.4,29.94,ENE,69,6.0,9.0,88,0.00,OVC,,0.00,WeatherDisplay:10.37,2013-03-22 15:25:00,
2013-03-22 10:30:00,28.6,25.5,29.95,ENE,74,8.0,10.0,88,0.00,OVC,,0.00,WeatherDisplay:10.37,2013-03-22 15:30:00,
2013-03-22 10:35:00,28.5,25.4,29.95,ENE,71,6.0,9.0,88,0.00,OVC,,0.00,WeatherDisplay:10.37,2013-03-22 15:35:00,
2013-03-22 10:40:00,28.6,25.5,29.94,ENE,70,6.0,9.0,88,0.00,OVC,,0.00,WeatherDisplay:10.37,2013-03-22 15:40:00,
2013-03-22 10:45:00,28.7,25.6,29.94,ENE,78,6.0,9.0,88,0.00,OVC,,0.00,WeatherDisplay:10.37,2013-03-22 15:45:00,
2013-03-22 10:50:00,28.7,25.6,29.95,ENE,77,6.0,9.0,88,0.00,OVC,,0.00,WeatherDisplay:10.37,2013-03-22 15:50:00,
2013-03-22 10:55:00,28.7,25.6,29.95,ENE,77,6.0,9.0,88,0.00,OVC,,0.00,WeatherDisplay:10.37,2013-03-22 15:55:00,
2013-03-22 11:00:00,28.8,25.6,29.95,ENE,75,6.0,8.0,88,0.00,OVC,,0.00,WeatherDisplay:10.37,2013-03-22 16:00:00,
2013-03-22 11:10:00,28.8,25.7,29.94,ENE,75,8.0,12.0,88,0.00,OVC,,0.00,WeatherDisplay:10.37,2013-03-22 16:10:00,
2013-03-22 11:15:00,28.8,25.7,29.94,ENE,78,7.0,10.0,88,0.00,OVC,,0.00,WeatherDisplay:10.37,2013-03-22 16:15:00,
2013-03-22 11:20:00,29.0,25.8,29.94,East,83,7.0,9.0,88,0.00,OVC,,0.00,WeatherDisplay:10.37,2013-03-22 16:20:00,
2013-03-22 11:25:00,29.0,25.9,29.94,ENE,76,7.0,10.0,88,0.00,OVC,,0.00,WeatherDisplay:10.37,2013-03-22 16:25:00,
2013-03-22 11:30:00,29.0,25.9,29.94,ENE,74,6.0,10.0,88,0.00,OVC,,0.00,WeatherDisplay:10.37,2013-03-22 16:30:00,
2013-03-22 11:40:00,29.1,26.0,29.94,ENE,72,6.0,10.0,88,0.00,OVC,,0.00,WeatherDisplay:10.37,2013-03-22 16:40:00,
2013-03-22 11:45:00,29.1,26.0,29.94,East,79,7.0,10.0,88,0.00,OVC,,0.00,WeatherDisplay:10.37,2013-03-22 16:45:00,
2013-03-22 11:50:00,29.2,26.1,29.95,ENE,76,6.0,8.0,88,0.00,OVC,,0.00,WeatherDisplay:10.37,2013-03-22 16:50:00,
2013-03-22 11:55:00,29.3,26.2,29.95,ENE,72,5.0,8.0,88,0.00,OVC,,0.00,WeatherDisplay:10.37,2013-03-22 16:55:00,
2013-03-22 12:00:00,29.2,26.1,29.95,ENE,70,6.0,8.0,88,0.00,OVC,,0.00,WeatherDisplay:10.37,2013-03-22 17:00:00,
2013-03-22 12:10:00,29.3,26.2,29.95,ENE,66,6.0,8.0,88,0.00,OVC,,0.00,WeatherDisplay:10.37,2013-03-22 17:10:00,
2013-03-22 12:20:00,29.3,26.2,29.96,NE,52,5.0,6.0,88,0.00,OVC,,0.00,WeatherDisplay:10.37,2013-03-22 17:20:00,
2013-03-22 12:25:00,29.4,26.3,29.96,NE,48,3.0,5.0,88,0.00,OVC,,0.00,WeatherDisplay:10.37,2013-03-22 17:25:00,
2013-03-22 12:30:00,29.5,26.4,29.96,NE,56,5.0,7.0,88,0.00,OVC,,0.00,WeatherDisplay:10.37,2013-03-22 17:30:00,
2013-03-22 12:40:00,29.5,26.4,29.96,NE,44,3.0,5.0,88,0.00,OVC,,0.00,WeatherDisplay:10.37,2013-03-22 17:40:00,
2013-03-22 12:45:00,29.4,26.3,29.96,NE,38,3.0,5.0,88,0.00,OVC,,0.00,WeatherDisplay:10.37,2013-03-22 17:45:00,
2013-03-22 12:50:00,29.5,26.4,29.96,NE,38,3.0,5.0,88,0.00,OVC,,0.00,WeatherDisplay:10.37,2013-03-22 17:50:00,
2013-03-22 12:55:00,29.5,26.4,29.97,NE,40,3.0,5.0,88,0.00,OVC,,0.00,WeatherDisplay:10.37,2013-03-22 17:55:00,
2013-03-22 13:00:00,29.6,26.8,29.97,NE,40,3.0,4.0,89,0.00,OVC,,0.00,WeatherDisplay:10.37,2013-03-22 18:00:00,
2013-03-22 13:10:00,29.6,26.8,29.96,NE,43,2.0,4.0,89,0.00,OVC,,0.00,WeatherDisplay:10.37,2013-03-22 18:10:00,
2013-03-22 13:15:00,29.7,26.8,29.96,NE,46,2.0,5.0,89,0.00,OVC,,0.00,WeatherDisplay:10.37,2013-03-22 18:15:00,
2013-03-22 13:20:00,29.7,26.9,29.97,NE,44,2.0,5.0,89,0.00,OVC,,0.00,WeatherDisplay:10.37,2013-03-22 18:20:00,
2013-03-22 13:30:00,29.8,27.0,29.97,NE,46,3.0,4.0,89,0.00,OVC,,0.00,WeatherDisplay:10.37,2013-03-22 18:30:00,
2013-03-22 13:40:00,30.1,27.2,29.95,ENE,57,6.0,9.0,89,0.00,OVC,,0.00,WeatherDisplay:10.37,2013-03-22 18:40:00,
2013-03-22 13:45:00,30.2,27.3,29.93,ENE,59,7.0,9.0,89,0.00,OVC,,0.00,WeatherDisplay:10.37,2013-03-22 18:45:00,
2013-03-22 13:50:00,30.6,27.8,29.92,NE,54,8.0,13.0,89,0.00,OVC,,0.00,WeatherDisplay:10.37,2013-03-22 18:50:00,
2013-03-22 13:55:00,31.1,28.5,29.91,ENE,57,10.0,12.0,90,0.00,OVC,,0.00,WeatherDisplay:10.37,2013-03-22 18:55:00,
2013-03-22 14:00:00,31.2,28.6,29.91,ENE,62,8.0,13.0,90,0.00,OVC,,0.00,WeatherDisplay:10.37,2013-03-22 19:00:00,
2013-03-22 14:10:00,31.2,28.3,29.92,ENE,67,9.0,12.0,89,0.00,OVC,,0.00,WeatherDisplay:10.37,2013-03-22 19:10:00,
2013-03-22 14:15:00,31.0,28.1,29.92,ENE,61,8.0,12.0,89,0.00,OVC,,0.00,WeatherDisplay:10.37,2013-03-22 19:15:00,
2013-03-22 14:20:00,31.1,28.3,29.92,ENE,70,5.0,10.0,89,0.00,OVC,,0.00,WeatherDisplay:10.37,2013-03-22 19:20:00,
2013-03-22 14:25:00,31.2,28.1,29.92,ENE,75,5.0,10.0,88,0.00,OVC,,0.00,WeatherDisplay:10.37,2013-03-22 19:25:00,
2013-03-22 14:30:00,31.7,28.8,29.92,ENE,76,7.0,9.0,89,0.00,OVC,,0.00,WeatherDisplay:10.37,2013-03-22 19:30:00,
2013-03-22 14:35:00,31.7,28.5,29.92,East,84,7.0,9.0,88,0.00,OVC,,0.00,WeatherDisplay:10.37,2013-03-22 19:35:00,
2013-03-22 14:40:00,31.5,28.3,29.92,ENE,77,3.0,9.0,88,0.00,OVC,,0.00,WeatherDisplay:10.37,2013-03-22 19:40:00,
2013-03-22 14:45:00,31.6,28.5,29.92,ENE,75,2.0,5.0,88,0.00,OVC,,0.00,WeatherDisplay:10.37,2013-03-22 19:45:00,
2013-03-22 14:50:00,31.7,28.5,29.92,East,79,5.0,7.0,88,0.00,OVC,,0.00,WeatherDisplay:10.37,2013-03-22 19:50:00,
2013-03-22 15:00:00,31.4,28.3,29.92,East,87,5.0,7.0,88,0.00,OVC,,0.00,WeatherDisplay:10.37,2013-03-22 20:00:00,
2013-03-22 15:10:00,31.4,28.2,29.92,East,96,5.0,7.0,88,0.00,OVC,,0.00,WeatherDisplay:10.37,2013-03-22 20:10:00,
2013-03-22 15:15:00,31.6,28.4,29.91,East,97,5.0,7.0,88,0.00,OVC,,0.00,WeatherDisplay:10.37,2013-03-22 20:15:00,
2013-03-22 15:20:00,31.7,28.2,29.91,ESE,102,3.0,7.0,87,0.00,OVC,,0.00,WeatherDisplay:10.37,2013-03-22 20:20:00,
2013-03-22 15:25:00,31.8,28.3,29.91,ESE,104,5.0,7.0,87,0.00,OVC,,0.00,WeatherDisplay:10.37,2013-03-22 20:25:00,
2013-03-22 15:30:00,31.7,28.3,29.91,East,97,7.0,9.0,87,0.00,OVC,,0.00,WeatherDisplay:10.37,2013-03-22 20:30:00,
2013-03-22 15:40:00,31.9,28.4,29.91,ENE,76,3.0,7.0,87,0.00,OVC,,0.00,WeatherDisplay:10.37,2013-03-22 20:40:00,
2013-03-22 15:45:00,31.9,28.5,29.91,ENE,67,5.0,9.0,87,0.00,OVC,,0.00,WeatherDisplay:10.37,2013-03-22 20:45:00,
2013-03-22 15:50:00,31.9,28.4,29.92,ENE,73,5.0,9.0,87,0.00,OVC,,0.00,WeatherDisplay:10.37,2013-03-22 20:50:00,
2013-03-22 15:55:00,31.8,28.3,29.92,East,83,3.0,8.0,87,0.00,OVC,,0.00,WeatherDisplay:10.37,2013-03-22 20:55:00,
2013-03-22 16:00:00,31.9,28.4,29.92,ENE,77,3.0,7.0,87,0.00,OVC,,0.00,WeatherDisplay:10.37,2013-03-22 21:00:00,
2013-03-22 16:05:00,31.9,28.4,29.92,ENE,66,6.0,7.0,87,0.00,OVC,,0.00,WeatherDisplay:10.37,2013-03-22 21:05:00,
2013-03-22 16:10:00,31.8,28.3,29.92,ENE,70,5.0,7.0,87,0.00,OVC,,0.00,WeatherDisplay:10.37,2013-03-22 21:10:00,
2013-03-22 16:15:00,31.9,28.4,29.92,ENE,69,5.0,7.0,87,0.00,OVC,,0.00,WeatherDisplay:10.37,2013-03-22 21:15:00,
2013-03-22 16:20:00,31.8,28.3,29.92,ENE,65,5.0,8.0,87,0.00,OVC,,0.00,WeatherDisplay:10.37,2013-03-22 21:20:00,
2013-03-22 16:25:00,31.9,28.4,29.92,ENE,66,6.0,8.0,87,0.00,OVC,,0.00,WeatherDisplay:10.37,2013-03-22 21:25:00,
2013-03-22 16:30:00,31.9,28.4,29.92,ENE,66,5.0,7.0,87,0.00,OVC,,0.00,WeatherDisplay:10.37,2013-03-22 21:30:00,
2013-03-22 16:40:00,31.9,28.4,29.92,ENE,64,6.0,8.0,87,0.00,OVC,,0.00,WeatherDisplay:10.37,2013-03-22 21:40:00,
2013-03-22 16:45:00,31.8,28.3,29.92,ENE,72,6.0,8.0,87,0.00,OVC,,0.00,WeatherDisplay:10.37,2013-03-22 21:45:00,
2013-03-22 16:50:00,31.7,28.2,29.92,ENE,75,6.0,7.0,87,0.00,OVC,,0.00,WeatherDisplay:10.37,2013-03-22 21:50:00,
2013-03-22 16:55:00,31.8,28.3,29.92,ENE,65,5.0,8.0,87,0.00,OVC,,0.00,WeatherDisplay:10.37,2013-03-22 21:55:00,
2013-03-22 17:00:00,31.8,28.4,29.92,ENE,64,3.0,8.0,87,0.00,OVC,,0.00,WeatherDisplay:10.37,2013-03-22 22:00:00,
2013-03-22 17:10:00,31.8,28.3,29.93,NE,50,5.0,8.0,87,0.00,OVC,,0.00,WeatherDisplay:10.37,2013-03-22 22:10:00,
2013-03-22 17:15:00,31.8,28.4,29.93,NE,49,3.0,7.0,87,0.00,OVC,,0.00,WeatherDisplay:10.37,2013-03-22 22:15:00,
2013-03-22 17:20:00,31.8,28.4,29.93,NE,42,3.0,6.0,87,0.00,OVC,,0.00,WeatherDisplay:10.37,2013-03-22 22:20:00,
2013-03-22 17:25:00,32.0,28.5,29.93,NE,40,3.0,6.0,87,0.00,OVC,,0.00,WeatherDisplay:10.37,2013-03-22 22:25:00,
2013-03-22 17:30:00,31.8,28.3,29.93,NE,43,5.0,7.0,87,0.00,OVC,,0.00,WeatherDisplay:10.37,2013-03-22 22:30:00,
2013-03-22 17:40:00,31.9,28.4,29.93,ENE,63,5.0,8.0,87,0.00,OVC,,0.00,WeatherDisplay:10.37,2013-03-22 22:40:00,
2013-03-22 17:45:00,31.9,28.5,29.93,ENE,62,5.0,7.0,87,0.00,OVC,,0.00,WeatherDisplay:10.37,2013-03-22 22:45:00,
2013-03-22 17:50:00,32.0,28.5,29.93,NE,50,6.0,10.0,87,0.00,OVC,,0.00,WeatherDisplay:10.37,2013-03-22 22:50:00,
2013-03-22 17:55:00,31.8,28.3,29.93,NE,47,7.0,10.0,87,0.00,OVC,,0.00,WeatherDisplay:10.37,2013-03-22 22:55:00,
2013-03-22 18:00:00,31.8,28.3,29.93,NE,54,7.0,9.0,87,0.00,OVC,,0.00,WeatherDisplay:10.37,2013-03-22 23:00:00,
2013-03-22 18:10:00,31.7,28.3,29.93,ENE,59,6.0,9.0,87,0.00,OVC,,0.00,WeatherDisplay:10.37,2013-03-22 23:10:00,
2013-03-22 18:15:00,31.7,28.3,29.93,NE,53,6.0,10.0,87,0.00,OVC,,0.00,WeatherDisplay:10.37,2013-03-22 23:15:00,
2013-03-22 18:20:00,31.6,28.2,29.93,NE,52,6.0,10.0,87,0.00,OVC,,0.00,WeatherDisplay:10.37,2013-03-22 23:20:00,
2013-03-22 18:25:00,31.6,28.1,29.94,ENE,61,5.0,9.0,87,0.00,OVC,,0.00,WeatherDisplay:10.37,2013-03-22 23:25:00,
2013-03-22 18:30:00,31.6,28.2,29.94,ENE,66,5.0,8.0,87,0.00,OVC,,0.00,WeatherDisplay:10.37,2013-03-22 23:30:00,
2013-03-22 18:40:00,31.6,28.1,29.94,NE,54,7.0,9.0,87,0.00,OVC,,0.00,WeatherDisplay:10.37,2013-03-22 23:40:00,
2013-03-22 18:45:00,31.6,28.4,29.94,NE,49,3.0,7.0,88,0.00,OVC,,0.00,WeatherDisplay:10.37,2013-03-22 23:45:00,
2013-03-22 18:50:00,31.6,28.4,29.94,NE,53,7.0,10.0,88,0.00,OVC,,0.00,WeatherDisplay:10.37,2013-03-22 23:50:00,
2013-03-22 18:55:00,31.5,28.3,29.94,ENE,65,7.0,9.0,88,0.00,OVC,,0.00,WeatherDisplay:10.37,2013-03-22 23:55:00,
2013-03-22 19:00:00,31.5,28.3,29.94,ENE,67,3.0,8.0,88,0.00,OVC,,0.00,WeatherDisplay:10.37,2013-03-23 00:00:00,
2013-03-22 19:10:00,31.5,28.3,29.95,ENE,65,3.0,7.0,88,0.00,OVC,,0.00,WeatherDisplay:10.37,2013-03-23 00:10:00,
2013-03-22 19:15:00,31.6,28.4,29.94,ENE,65,7.0,9.0,88,0.00,OVC,,0.00,WeatherDisplay:10.37,2013-03-23 00:15:00,
2013-03-22 19:20:00,31.5,28.3,29.94,ENE,57,5.0,9.0,88,0.00,OVC,,0.00,WeatherDisplay:10.37,2013-03-23 00:20:00,
2013-03-22 19:25:00,31.4,28.2,29.94,ENE,58,5.0,9.0,88,0.00,OVC,,0.00,WeatherDisplay:10.37,2013-03-23 00:25:00,
2013-03-22 19:30:00,31.4,28.2,29.95,ENE,61,5.0,8.0,88,0.00,OVC,,0.00,WeatherDisplay:10.37,2013-03-23 00:30:00,
2013-03-22 19:40:00,31.4,28.2,29.95,ENE,57,5.0,7.0,88,0.00,OVC,,0.00,WeatherDisplay:10.37,2013-03-23 00:40:00,
2013-03-22 19:45:00,31.4,28.2,29.94,ENE,63,5.0,8.0,88,0.00,OVC,,0.00,WeatherDisplay:10.37,2013-03-23 00:45:00,
2013-03-22 19:50:00,31.4,28.2,29.95,ENE,68,6.0,9.0,88,0.00,OVC,,0.00,WeatherDisplay:10.37,2013-03-23 00:50:00,
2013-03-22 19:55:00,31.4,28.2,29.95,ENE,70,6.0,9.0,88,0.00,OVC,,0.00,WeatherDisplay:10.37,2013-03-23 00:55:00,
2013-03-22 20:00:00,31.4,28.2,29.95,ENE,77,3.0,8.0,88,0.00,OVC,,0.00,WeatherDisplay:10.37,2013-03-23 01:00:00,
2013-03-22 20:05:00,31.4,28.2,29.95,East,82,6.0,10.0,88,0.00,OVC,,0.00,WeatherDisplay:10.37,2013-03-23 01:05:00,
2013-03-22 20:10:00,31.4,28.2,29.94,East,80,6.0,9.0,88,0.00,OVC,,0.00,WeatherDisplay:10.37,2013-03-23 01:10:00,
2013-03-22 20:15:00,31.4,28.2,29.94,ENE,76,3.0,7.0,88,0.00,OVC,,0.00,WeatherDisplay:10.37,2013-03-23 01:15:00,
2013-03-22 20:20:00,31.4,28.2,29.94,ENE,76,6.0,8.0,88,0.00,OVC,,0.00,WeatherDisplay:10.37,2013-03-23 01:20:00,
2013-03-22 20:25:00,31.4,28.2,29.95,ENE,77,5.0,7.0,88,0.00,OVC,,0.00,WeatherDisplay:10.37,2013-03-23 01:25:00,
2013-03-22 20:30:00,31.4,28.3,29.95,ENE,75,3.0,5.0,88,0.00,OVC,,0.00,WeatherDisplay:10.37,2013-03-23 01:30:00,
2013-03-22 20:40:00,31.5,28.3,29.95,ENE,73,2.0,5.0,88,0.00,OVC,,0.00,WeatherDisplay:10.37,2013-03-23 01:40:00,
2013-03-22 20:45:00,31.4,28.3,29.95,ENE,77,5.0,7.0,88,0.00,OVC,,0.00,WeatherDisplay:10.37,2013-03-23 01:45:00,
2013-03-22 20:50:00,31.4,27.9,29.95,ENE,76,5.0,7.0,87,0.00,OVC,,0.00,WeatherDisplay:10.37,2013-03-23 01:50:00,
2013-03-22 20:55:00,31.4,27.9,29.95,ENE,73,5.0,7.0,87,0.00,OVC,,0.00,WeatherDisplay:10.37,2013-03-23 01:55:00,
2013-03-22 21:00:00,31.3,27.9,29.95,ENE,75,5.0,7.0,87,0.00,OVC,,0.00,WeatherDisplay:10.37,2013-03-23 02:00:00,
2013-03-22 21:10:00,31.2,27.8,29.95,East,80,5.0,7.0,87,0.00,OVC,,0.00,WeatherDisplay:10.37,2013-03-23 02:10:00,
2013-03-22 21:20:00,31.2,27.7,29.95,ENE,73,5.0,7.0,87,0.00,OVC,,0.00,WeatherDisplay:10.37,2013-03-23 02:20:00,
2013-03-22 21:30:00,31.1,27.6,29.96,ENE,70,5.0,7.0,87,0.00,OVC,,0.00,WeatherDisplay:10.37,2013-03-23 02:30:00,
2013-03-22 21:35:00,31.1,27.7,29.96,ENE,70,5.0,5.0,87,0.00,OVC,,0.00,WeatherDisplay:10.37,2013-03-23 02:35:00,
2013-03-22 21:40:00,31.1,27.7,29.96,ENE,69,5.0,8.0,87,0.00,OVC,,0.00,WeatherDisplay:10.37,2013-03-23 02:40:00,
2013-03-22 21:45:00,31.2,27.7,29.97,ENE,62,3.0,5.0,87,0.00,OVC,,0.00,WeatherDisplay:10.37,2013-03-23 02:45:00,
2013-03-22 21:50:00,31.2,27.7,29.97,NE,56,5.0,7.0,87,0.00,OVC,,0.00,WeatherDisplay:10.37,2013-03-23 02:50:00,
2013-03-22 21:55:00,31.2,27.7,29.97,NE,55,5.0,7.0,87,0.00,OVC,,0.00,WeatherDisplay:10.37,2013-03-23 02:55:00,
2013-03-22 22:00:00,31.2,27.7,29.97,NE,54,3.0,8.0,87,0.00,OVC,,0.00,WeatherDisplay:10.37,2013-03-23 03:00:00,
2013-03-22 22:10:00,31.1,27.6,29.97,ENE,64,6.0,8.0,87,0.00,OVC,,0.00,WeatherDisplay:10.37,2013-03-23 03:10:00,
2013-03-22 22:15:00,31.1,27.6,29.97,ENE,60,6.0,8.0,87,0.00,OVC,,0.00,WeatherDisplay:10.37,2013-03-23 03:15:00,
2013-03-22 22:20:00,31.1,27.7,29.98,NE,55,6.0,8.0,87,0.00,OVC,,0.00,WeatherDisplay:10.37,2013-03-23 03:20:00,
2013-03-22 22:25:00,31.2,27.5,29.98,ENE,58,5.0,10.0,86,0.00,OVC,,0.00,WeatherDisplay:10.37,2013-03-23 03:25:00,
2013-03-22 22:30:00,31.3,27.6,29.98,ENE,60,6.0,7.0,86,0.00,OVC,,0.00,WeatherDisplay:10.37,2013-03-23 03:30:00,
2013-03-22 22:40:00,31.3,27.6,29.98,NE,56,5.0,9.0,86,0.00,OVC,,0.00,WeatherDisplay:10.37,2013-03-23 03:40:00,
2013-03-22 22:45:00,31.3,27.6,29.98,ENE,59,6.0,8.0,86,0.00,OVC,,0.00,WeatherDisplay:10.37,2013-03-23 03:45:00,
2013-03-22 22:50:00,31.3,27.6,29.97,ENE,61,6.0,8.0,86,0.00,OVC,,0.00,WeatherDisplay:10.37,2013-03-23 03:50:00,
2013-03-22 23:00:00,31.2,27.5,29.97,ENE,69,7.0,9.0,86,0.00,OVC,,0.00,WeatherDisplay:10.37,2013-03-23 04:00:00,
2013-03-22 23:05:00,31.3,27.6,29.97,ENE,72,5.0,10.0,86,0.00,OVC,,0.00,WeatherDisplay:10.37,2013-03-23 04:05:00,
2013-03-22 23:10:00,31.3,27.6,29.97,ENE,70,6.0,10.0,86,0.00,OVC,,0.00,WeatherDisplay:10.37,2013-03-23 04:10:00,
2013-03-22 23:15:00,31.3,27.6,29.98,ENE,70,6.0,9.0,86,0.00,OVC,,0.00,WeatherDisplay:10.37,2013-03-23 04:15:00,
2013-03-22 23:20:00,31.3,27.6,29.98,ENE,73,5.0,9.0,86,0.00,OVC,,0.00,WeatherDisplay:10.37,2013-03-23 04:20:00,
2013-03-22 23:25:00,31.3,27.6,29.97,ENE,74,6.0,8.0,86,0.00,OVC,,0.00,WeatherDisplay:10.37,2013-03-23 04:25:00,
2013-03-22 23:30:00,31.3,27.3,29.98,ENE,72,6.0,8.0,85,0.00,OVC,,0.00,WeatherDisplay:10.37,2013-03-23 04:30:00,
2013-03-22 23:40:00,31.3,27.3,29.98,ENE,75,5.0,8.0,85,0.00,OVC,,0.00,WeatherDisplay:10.37,2013-03-23 04:40:00,
2013-03-22 23:45:00,31.4,27.4,29.98,ENE,69,7.0,9.0,85,0.00,OVC,,0.00,WeatherDisplay:10.37,2013-03-23 04:45:00,
2013-03-22 23:50:00,31.3,27.4,29.98,ENE,62,7.0,9.0,85,0.00,OVC,,0.00,WeatherDisplay:10.37,2013-03-23 04:50:00,